Time,TemperatureF,DewpointF,PressureIn,WindDirection,WindDirectionDegrees,WindSpeedMPH,WindSpeedGustMPH,Humidity,HourlyPrecipIn,Conditions,Clouds,dailyrainin,SoftwareType,DateUTC
2013-02-13 00:00:00,33.6,26.8,29.88,NW,305,4.0,5.0,76,0.00,,,0.01,Wunderground v.1.15,2013-02-13 05:00:00,
2013-02-13 00:01:00,33.6,26.8,29.89,WNW,302,6.0,6.0,76,0.00,,,0.01,Wunderground v.1.15,2013-02-13 05:01:00,
2013-02-13 00:06:00,33.5,26.7,29.89,WNW,288,7.0,7.0,76,0.00,,,0.00,Wunderground v.1.15,2013-02-13 05:06:00,
2013-02-13 00:11:00,33.4,26.6,29.89,WNW,285,5.0,7.0,76,0.00,,,0.00,Wunderground v.1.15,2013-02-13 05:11:00,
2013-02-13 00:16:00,33.2,26.8,29.89,WNW,291,5.0,7.0,77,0.00,,,0.00,Wunderground v.1.15,2013-02-13 05:16:00,
2013-02-13 00:21:00,33.1,26.7,29.88,NNW,327,5.0,8.0,77,0.00,,,0.00,Wunderground v.1.15,2013-02-13 05:21:00,
2013-02-13 00:26:00,33.2,27.1,29.88,NNW,344,5.0,8.0,78,0.00,,,0.00,Wunderground v.1.15,2013-02-13 05:26:00,
2013-02-13 00:31:00,33.4,27.3,29.87,NW,310,6.0,9.0,78,0.00,,,0.00,Wunderground v.1.15,2013-02-13 05:31:00,
2013-02-13 00:36:00,33.4,27.3,29.87,NNW,341,6.0,9.0,78,0.00,,,0.00,Wunderground v.1.15,2013-02-13 05:36:00,
2013-02-13 00:41:00,33.4,27.0,29.87,NNW,348,7.0,9.0,77,0.00,,,0.00,Wunderground v.1.15,2013-02-13 05:41:00,
2013-02-13 00:46:00,33.4,27.0,29.88,NNW,342,6.0,10.0,77,0.00,,,0.00,Wunderground v.1.15,2013-02-13 05:46:00,
2013-02-13 00:51:00,33.5,27.1,29.88,NW,312,9.0,10.0,77,0.00,,,0.00,Wunderground v.1.15,2013-02-13 05:51:00,
2013-02-13 00:56:00,33.6,27.2,29.88,NNW,333,11.0,13.0,77,0.00,,,0.00,Wunderground v.1.15,2013-02-13 05:56:00,
2013-02-13 01:01:00,33.8,27.4,29.89,NW,306,8.0,10.0,77,0.00,,,0.00,Wunderground v.1.15,2013-02-13 06:01:00,
2013-02-13 01:06:00,33.9,27.1,29.88,NW,319,8.0,11.0,76,0.00,,,0.00,Wunderground v.1.15,2013-02-13 06:06:00,
2013-02-13 01:11:00,33.9,27.1,29.89,WNW,290,8.0,9.0,76,0.00,,,0.00,Wunderground v.1.15,2013-02-13 06:11:00,
2013-02-13 01:16:00,33.8,27.0,29.89,NW,304,8.0,9.0,76,0.00,,,0.00,Wunderground v.1.15,2013-02-13 06:16:00,
2013-02-13 01:21:00,33.7,26.9,29.88,NNW,329,7.0,11.0,76,0.00,,,0.00,Wunderground v.1.15,2013-02-13 06:21:00,
2013-02-13 01:26:00,33.6,26.8,29.88,NW,325,5.0,11.0,76,0.00,,,0.00,Wunderground v.1.15,2013-02-13 06:26:00,
2013-02-13 01:31:00,33.6,26.8,29.88,NNW,327,7.0,9.0,76,0.00,,,0.00,Wunderground v.1.15,2013-02-13 06:31:00,
2013-02-13 01:36:00,33.4,26.6,29.89,WNW,302,5.0,10.0,76,0.00,,,0.00,Wunderground v.1.15,2013-02-13 06:36:00,
2013-02-13 01:41:00,33.2,26.5,29.89,WNW,292,7.0,7.0,76,0.00,,,0.00,Wunderground v.1.15,2013-02-13 06:41:00,
2013-02-13 01:46:00,33.1,26.7,29.89,WNW,297,6.0,8.0,77,0.00,,,0.00,Wunderground v.1.15,2013-02-13 06:46:00,
2013-02-13 01:51:00,32.9,26.5,29.88,WNW,296,5.0,9.0,77,0.00,,,0.00,Wunderground v.1.15,2013-02-13 06:51:00,
2013-02-13 01:56:00,32.9,26.5,29.88,NW,319,5.0,11.0,77,0.00,,,0.00,Wunderground v.1.15,2013-02-13 06:56:00,
2013-02-13 02:01:00,32.9,26.2,29.88,NW,315,9.0,11.0,76,0.00,,,0.00,Wunderground v.1.15,2013-02-13 07:01:00,
2013-02-13 02:06:00,32.9,26.2,29.88,NW,309,9.0,11.0,76,0.00,,,0.00,Wunderground v.1.15,2013-02-13 07:06:00,
2013-02-13 02:11:00,33.0,25.9,29.88,WNW,300,6.0,9.0,75,0.00,,,0.00,Wunderground v.1.15,2013-02-13 07:11:00,
2013-02-13 02:16:00,33.0,25.9,29.88,WNW,298,8.0,10.0,75,0.00,,,0.00,Wunderground v.1.15,2013-02-13 07:16:00,
2013-02-13 02:21:00,33.0,25.9,29.88,NW,305,8.0,8.0,75,0.00,,,0.00,Wunderground v.1.15,2013-02-13 07:21:00,
2013-02-13 02:26:00,33.0,25.9,29.89,WNW,286,6.0,10.0,75,0.00,,,0.00,Wunderground v.1.15,2013-02-13 07:26:00,
2013-02-13 02:31:00,32.9,25.8,29.89,WNW,292,9.0,9.0,75,0.00,,,0.00,Wunderground v.1.15,2013-02-13 07:31:00,
2013-02-13 02:36:00,32.8,26.1,29.89,WNW,292,6.0,9.0,76,0.00,,,0.00,Wunderground v.1.15,2013-02-13 07:36:00,
2013-02-13 02:41:00,32.8,26.1,29.89,WNW,296,7.0,9.0,76,0.00,,,0.00,Wunderground v.1.15,2013-02-13 07:41:00,
2013-02-13 02:46:00,32.9,25.8,29.90,NW,306,9.0,11.0,75,0.00,,,0.00,Wunderground v.1.15,2013-02-13 07:46:00,
2013-02-13 02:51:00,32.9,25.8,29.90,WNW,291,8.0,10.0,75,0.00,,,0.00,Wunderground v.1.15,2013-02-13 07:51:00,
2013-02-13 02:56:00,32.9,25.5,29.90,WNW,300,9.0,10.0,74,0.00,,,0.00,Wunderground v.1.15,2013-02-13 07:56:00,
2013-02-13 03:01:00,32.8,25.4,29.90,WNW,294,11.0,11.0,74,0.00,,,0.00,Wunderground v.1.15,2013-02-13 08:01:00,
2013-02-13 03:06:00,32.8,25.1,29.90,WNW,302,10.0,11.0,73,0.00,,,0.00,Wunderground v.1.15,2013-02-13 08:06:00,
2013-02-13 03:11:00,33.1,25.1,29.90,NW,305,5.0,11.0,72,0.00,,,0.00,Wunderground v.1.15,2013-02-13 08:11:00,
2013-02-13 03:16:00,33.1,25.1,29.91,WNW,301,8.0,11.0,72,0.00,,,0.00,Wunderground v.1.15,2013-02-13 08:16:00,
2013-02-13 03:21:00,33.0,25.0,29.91,WNW,292,9.0,13.0,72,0.00,,,0.00,Wunderground v.1.15,2013-02-13 08:21:00,
2013-02-13 03:26:00,33.0,24.6,29.91,WNW,287,8.0,13.0,71,0.00,,,0.00,Wunderground v.1.15,2013-02-13 08:26:00,
2013-02-13 03:31:00,32.9,24.5,29.91,WNW,295,8.0,10.0,71,0.00,,,0.00,Wunderground v.1.15,2013-02-13 08:31:00,
2013-02-13 03:36:00,32.9,24.5,29.91,WNW,290,6.0,10.0,71,0.00,,,0.00,Wunderground v.1.15,2013-02-13 08:36:00,
2013-02-13 03:41:00,32.8,24.4,29.91,WNW,282,8.0,9.0,71,0.00,,,0.00,Wunderground v.1.15,2013-02-13 08:41:00,
2013-02-13 03:46:00,32.8,24.4,29.91,WNW,284,7.0,10.0,71,0.00,,,0.00,Wunderground v.1.15,2013-02-13 08:46:00,
2013-02-13 03:51:00,32.7,24.3,29.91,West,277,6.0,7.0,71,0.00,,,0.00,Wunderground v.1.15,2013-02-13 08:51:00,
2013-02-13 03:56:00,32.6,24.2,29.91,WNW,287,7.0,9.0,71,0.00,,,0.00,Wunderground v.1.15,2013-02-13 08:56:00,
2013-02-13 04:01:00,32.6,24.2,29.91,WNW,286,7.0,9.0,71,0.00,,,0.00,Wunderground v.1.15,2013-02-13 09:01:00,
2013-02-13 04:06:00,32.5,24.1,29.91,WNW,302,5.0,10.0,71,0.00,,,0.00,Wunderground v.1.15,2013-02-13 09:06:00,
2013-02-13 04:11:00,32.5,24.1,29.91,WNW,289,6.0,8.0,71,0.00,,,0.00,Wunderground v.1.15,2013-02-13 09:11:00,
2013-02-13 04:16:00,32.5,24.5,29.91,WNW,292,4.0,10.0,72,0.00,,,0.00,Wunderground v.1.15,2013-02-13 09:16:00,
2013-02-13 04:21:00,32.5,24.1,29.91,WNW,298,4.0,8.0,71,0.00,,,0.00,Wunderground v.1.15,2013-02-13 09:21:00,
2013-02-13 04:26:00,32.5,24.1,29.91,WNW,302,6.0,10.0,71,0.00,,,0.00,Wunderground v.1.15,2013-02-13 09:26:00,
2013-02-13 04:31:00,32.4,24.0,29.91,WNW,300,3.0,6.0,71,0.00,,,0.00,Wunderground v.1.15,2013-02-13 09:31:00,
2013-02-13 04:36:00,32.3,23.9,29.91,WNW,297,6.0,7.0,71,0.00,,,0.00,Wunderground v.1.15,2013-02-13 09:36:00,
2013-02-13 04:41:00,32.3,24.3,29.91,WNW,287,5.0,6.0,72,0.00,,,0.00,Wunderground v.1.15,2013-02-13 09:41:00,
2013-02-13 04:46:00,32.2,24.2,29.91,WNW,296,6.0,7.0,72,0.00,,,0.00,Wunderground v.1.15,2013-02-13 09:46:00,
2013-02-13 04:51:00,32.1,24.1,29.91,WNW,293,5.0,8.0,72,0.00,,,0.00,Wunderground v.1.15,2013-02-13 09:51:00,
2013-02-13 04:56:00,31.9,24.2,29.92,NW,305,6.0,8.0,73,0.00,,,0.00,Wunderground v.1.15,2013-02-13 09:56:00,
2013-02-13 05:01:00,31.6,23.9,29.92,NW,308,5.0,5.0,73,0.00,,,0.00,Wunderground v.1.15,2013-02-13 10:01:00,
2013-02-13 05:06:00,31.6,23.9,29.91,NW,314,5.0,8.0,73,0.00,,,0.00,Wunderground v.1.15,2013-02-13 10:06:00,
2013-02-13 05:11:00,31.4,23.7,29.92,WNW,302,6.0,8.0,73,0.00,,,0.00,Wunderground v.1.15,2013-02-13 10:11:00,
2013-02-13 05:16:00,31.4,23.7,29.92,NNW,329,4.0,8.0,73,0.00,,,0.00,Wunderground v.1.15,2013-02-13 10:16:00,
2013-02-13 05:21:00,31.5,24.2,29.92,WNW,288,5.0,6.0,74,0.00,,,0.00,Wunderground v.1.15,2013-02-13 10:21:00,
2013-02-13 05:27:00,31.6,24.3,29.92,WNW,290,4.0,8.0,74,0.00,,,0.00,Wunderground v.1.15,2013-02-13 10:27:00,
2013-02-13 05:32:00,31.5,23.8,29.92,NW,305,6.0,8.0,73,0.00,,,0.00,Wunderground v.1.15,2013-02-13 10:32:00,
2013-02-13 05:37:00,31.4,24.1,29.91,NW,315,5.0,8.0,74,0.00,,,0.00,Wunderground v.1.15,2013-02-13 10:37:00,
2013-02-13 05:42:00,31.3,24.0,29.91,NW,313,8.0,11.0,74,0.00,,,0.00,Wunderground v.1.15,2013-02-13 10:42:00,
2013-02-13 05:47:00,31.2,23.9,29.91,NW,315,8.0,11.0,74,0.00,,,0.00,Wunderground v.1.15,2013-02-13 10:47:00,
2013-02-13 05:52:00,31.2,23.9,29.91,NW,325,5.0,8.0,74,0.00,,,0.00,Wunderground v.1.15,2013-02-13 10:52:00,
2013-02-13 05:57:00,31.1,23.8,29.90,NW,316,7.0,8.0,74,0.00,,,0.00,Wunderground v.1.15,2013-02-13 10:57:00,
2013-02-13 06:02:00,31.1,23.8,29.90,NNW,328,3.0,7.0,74,0.00,,,0.00,Wunderground v.1.15,2013-02-13 11:02:00,
2013-02-13 06:07:00,31.1,24.1,29.90,NW,317,6.0,7.0,75,0.00,,,0.00,Wunderground v.1.15,2013-02-13 11:07:00,
2013-02-13 06:12:00,31.2,24.5,29.90,North,351,5.0,5.0,76,0.00,,,0.00,Wunderground v.1.15,2013-02-13 11:12:00,
2013-02-13 06:17:00,31.3,24.6,29.90,North,355,3.0,6.0,76,0.00,,,0.00,Wunderground v.1.15,2013-02-13 11:17:00,
2013-02-13 06:22:00,31.2,24.5,29.90,North,355,2.0,5.0,76,0.00,,,0.00,Wunderground v.1.15,2013-02-13 11:22:00,
2013-02-13 06:27:00,31.0,24.3,29.90,NNW,345,5.0,6.0,76,0.00,,,0.00,Wunderground v.1.15,2013-02-13 11:27:00,
2013-02-13 06:32:00,31.2,24.8,29.91,North,355,1.0,3.0,77,0.00,,,0.00,Wunderground v.1.15,2013-02-13 11:32:00,
2013-02-13 06:37:00,31.4,25.3,29.90,North,355,1.0,4.0,78,0.00,,,0.00,Wunderground v.1.15,2013-02-13 11:37:00,
2013-02-13 06:42:00,31.6,25.5,29.90,North,355,4.0,5.0,78,0.00,,,0.00,Wunderground v.1.15,2013-02-13 11:42:00,
2013-02-13 06:47:00,32.1,26.3,29.90,North,5,1.0,5.0,79,0.00,,,0.00,Wunderground v.1.15,2013-02-13 11:47:00,
2013-02-13 06:52:00,32.4,26.6,29.90,North,5,3.0,3.0,79,0.00,,,0.00,Wunderground v.1.15,2013-02-13 11:52:00,
2013-02-13 06:57:00,33.0,27.5,29.90,North,5,3.0,3.0,80,0.00,,,0.00,Wunderground v.1.15,2013-02-13 11:57:00,
2013-02-13 07:02:00,33.1,27.0,29.90,North,355,2.0,4.0,78,0.00,,,0.00,Wunderground v.1.15,2013-02-13 12:02:00,
2013-02-13 07:07:00,33.3,27.5,29.90,NNW,347,2.0,4.0,79,0.00,,,0.00,Wunderground v.1.15,2013-02-13 12:07:00,
2013-02-13 07:12:00,33.7,28.2,29.91,NNW,344,0.0,2.0,80,0.00,,,0.00,Wunderground v.1.15,2013-02-13 12:12:00,
2013-02-13 07:17:00,34.0,28.5,29.91,NNW,344,0.0,2.0,80,0.00,,,0.00,Wunderground v.1.15,2013-02-13 12:17:00,
2013-02-13 07:22:00,33.8,27.0,29.91,NNW,344,2.0,2.0,76,0.00,,,0.00,Wunderground v.1.15,2013-02-13 12:22:00,
2013-02-13 07:27:00,33.5,26.4,29.91,NNW,344,1.0,3.0,75,0.00,,,0.00,Wunderground v.1.15,2013-02-13 12:27:00,
2013-02-13 07:32:00,33.8,27.4,29.91,NNW,344,1.0,2.0,77,0.00,,,0.00,Wunderground v.1.15,2013-02-13 12:32:00,
2013-02-13 07:37:00,34.3,28.2,29.91,North,9,0.0,3.0,78,0.00,,,0.00,Wunderground v.1.15,2013-02-13 12:37:00,
2013-02-13 07:42:00,34.5,27.7,29.91,North,5,0.0,2.0,76,0.00,,,0.00,Wunderground v.1.15,2013-02-13 12:42:00,
2013-02-13 07:47:00,34.3,26.9,29.91,NW,317,2.0,4.0,74,0.00,,,0.00,Wunderground v.1.15,2013-02-13 12:47:00,
2013-02-13 07:52:00,34.3,26.9,29.92,NW,315,2.0,6.0,74,0.00,,,0.00,Wunderground v.1.15,2013-02-13 12:52:00,
2013-02-13 07:57:00,34.5,26.4,29.92,WNW,283,5.0,6.0,72,0.00,,,0.00,Wunderground v.1.15,2013-02-13 12:57:00,
2013-02-13 08:02:00,34.6,26.2,29.92,WNW,297,3.0,5.0,71,0.00,,,0.00,Wunderground v.1.15,2013-02-13 13:02:00,
2013-02-13 08:07:00,35.2,27.4,29.92,NW,317,6.0,6.0,73,0.00,,,0.00,Wunderground v.1.15,2013-02-13 13:07:00,
2013-02-13 08:12:00,36.1,27.9,29.92,NW,306,6.0,6.0,72,0.00,,,0.00,Wunderground v.1.15,2013-02-13 13:12:00,
2013-02-13 08:17:00,37.0,28.5,29.92,NW,311,5.0,8.0,71,0.00,,,0.00,Wunderground v.1.15,2013-02-13 13:17:00,
2013-02-13 08:22:00,37.1,27.5,29.92,NW,315,4.0,6.0,68,0.00,,,0.00,Wunderground v.1.15,2013-02-13 13:22:00,
2013-02-13 08:27:00,37.5,27.9,29.92,NW,305,5.0,7.0,68,0.00,,,0.00,Wunderground v.1.15,2013-02-13 13:27:00,
2013-02-13 08:32:00,38.1,28.1,29.92,NNW,344,3.0,7.0,67,0.00,,,0.00,Wunderground v.1.15,2013-02-13 13:32:00,
2013-02-13 08:37:00,39.2,28.8,29.92,WNW,301,5.0,7.0,66,0.00,,,0.00,Wunderground v.1.15,2013-02-13 13:37:00,
2013-02-13 08:42:00,39.5,27.9,29.92,NW,324,3.0,7.0,63,0.00,,,0.00,Wunderground v.1.15,2013-02-13 13:42:00,
2013-02-13 08:47:00,39.4,27.5,29.92,NNW,334,5.0,11.0,62,0.00,,,0.00,Wunderground v.1.15,2013-02-13 13:47:00,
2013-02-13 08:52:00,40.3,28.7,29.92,NW,324,4.0,7.0,63,0.00,,,0.00,Wunderground v.1.15,2013-02-13 13:52:00,
2013-02-13 08:57:00,41.1,28.3,29.92,NW,317,7.0,11.0,60,0.00,,,0.00,Wunderground v.1.15,2013-02-13 13:57:00,
2013-02-13 09:02:00,41.7,29.2,29.92,NNW,332,3.0,6.0,61,0.00,,,0.00,Wunderground v.1.15,2013-02-13 14:02:00,
2013-02-13 09:07:00,42.5,30.0,29.92,NW,320,7.0,10.0,61,0.00,,,0.00,Wunderground v.1.15,2013-02-13 14:07:00,
2013-02-13 09:12:00,43.2,29.8,29.92,NNW,346,1.0,6.0,59,0.00,,,0.00,Wunderground v.1.15,2013-02-13 14:12:00,
2013-02-13 09:17:00,43.8,30.0,29.92,North,355,4.0,9.0,58,0.00,,,0.00,Wunderground v.1.15,2013-02-13 14:17:00,
2013-02-13 09:22:00,44.4,30.5,29.92,North,351,4.0,7.0,58,0.00,,,0.00,Wunderground v.1.15,2013-02-13 14:22:00,
2013-02-13 09:27:00,44.8,30.5,29.91,NNW,348,6.0,10.0,57,0.00,,,0.00,Wunderground v.1.15,2013-02-13 14:27:00,
2013-02-13 09:32:00,44.3,29.1,29.91,North,5,5.0,10.0,55,0.00,,,0.00,Wunderground v.1.15,2013-02-13 14:32:00,
2013-02-13 09:37:00,44.9,31.0,29.91,NNW,346,2.0,10.0,58,0.00,,,0.00,Wunderground v.1.15,2013-02-13 14:37:00,
2013-02-13 09:42:00,45.3,31.4,29.91,NNW,340,6.0,7.0,58,0.00,,,0.00,Wunderground v.1.15,2013-02-13 14:42:00,
2013-02-13 09:47:00,45.5,30.7,29.91,NNW,346,4.0,8.0,56,0.00,,,0.00,Wunderground v.1.15,2013-02-13 14:47:00,
2013-02-13 09:52:00,45.8,31.4,29.90,North,355,7.0,8.0,57,0.00,,,0.00,Wunderground v.1.15,2013-02-13 14:52:00,
2013-02-13 09:57:00,45.8,30.5,29.90,NNE,22,4.0,8.0,55,0.00,,,0.00,Wunderground v.1.15,2013-02-13 14:57:00,
2013-02-13 10:02:00,45.8,31.0,29.90,North,360,3.0,7.0,56,0.00,,,0.00,Wunderground v.1.15,2013-02-13 15:02:00,
2013-02-13 10:07:00,46.3,31.4,29.90,North,9,5.0,8.0,56,0.00,,,0.00,Wunderground v.1.15,2013-02-13 15:07:00,
2013-02-13 10:12:00,46.7,31.4,29.90,North,9,4.0,6.0,55,0.00,,,0.00,Wunderground v.1.15,2013-02-13 15:12:00,
2013-02-13 10:17:00,46.9,31.1,29.89,NNE,18,5.0,7.0,54,0.00,,,0.00,Wunderground v.1.15,2013-02-13 15:17:00,
2013-02-13 10:22:00,47.0,31.7,29.89,NNE,25,4.0,5.0,55,0.00,,,0.00,Wunderground v.1.15,2013-02-13 15:22:00,
2013-02-13 10:27:00,47.3,31.5,29.89,NNE,16,1.0,7.0,54,0.00,,,0.00,Wunderground v.1.15,2013-02-13 15:27:00,
2013-02-13 10:32:00,47.9,31.6,29.89,NNE,17,1.0,4.0,53,0.00,,,0.00,Wunderground v.1.15,2013-02-13 15:32:00,
2013-02-13 10:37:00,48.2,30.9,29.88,NNW,345,3.0,5.0,51,0.00,,,0.00,Wunderground v.1.15,2013-02-13 15:37:00,
2013-02-13 10:42:00,48.2,29.9,29.88,North,350,2.0,3.0,49,0.00,,,0.00,Wunderground v.1.15,2013-02-13 15:42:00,
2013-02-13 10:47:00,48.4,30.6,29.88,North,11,2.0,8.0,50,0.00,,,0.00,Wunderground v.1.15,2013-02-13 15:47:00,
2013-02-13 10:52:00,48.8,31.9,29.88,North,355,1.0,3.0,52,0.00,,,0.00,Wunderground v.1.15,2013-02-13 15:52:00,
2013-02-13 10:57:00,49.0,30.7,29.88,NNW,344,2.0,4.0,49,0.00,,,0.00,Wunderground v.1.15,2013-02-13 15:57:00,
2013-02-13 11:02:00,46.2,26.0,29.89,West,277,4.0,6.0,45,0.00,,,0.00,Wunderground v.1.15,2013-02-13 16:02:00,
2013-02-13 11:07:00,44.1,27.6,29.89,NW,318,2.0,6.0,52,0.00,,,0.00,Wunderground v.1.15,2013-02-13 16:07:00,
2013-02-13 11:12:00,44.3,27.3,29.89,NW,311,1.0,2.0,51,0.00,,,0.00,Wunderground v.1.15,2013-02-13 16:12:00,
2013-02-13 11:17:00,43.4,26.5,29.88,WSW,238,0.0,3.0,51,0.00,,,0.00,Wunderground v.1.15,2013-02-13 16:17:00,
2013-02-13 11:22:00,44.1,28.5,29.88,WSW,239,0.0,1.0,54,0.00,,,0.00,Wunderground v.1.15,2013-02-13 16:22:00,
2013-02-13 11:27:00,42.2,28.0,29.88,SSW,198,7.0,8.0,57,0.00,,,0.00,Wunderground v.1.15,2013-02-13 16:27:00,
2013-02-13 11:32:00,38.2,26.7,29.88,SSW,207,7.0,10.0,63,0.00,,,0.00,Wunderground v.1.15,2013-02-13 16:32:00,
2013-02-13 11:37:00,37.0,27.8,29.88,SSW,213,8.0,10.0,69,0.00,,,0.00,Wunderground v.1.15,2013-02-13 16:37:00,
2013-02-13 11:42:00,36.3,28.5,29.88,SSW,213,9.0,11.0,73,0.00,,,0.00,Wunderground v.1.15,2013-02-13 16:42:00,
2013-02-13 11:47:00,36.2,28.7,29.87,SW,216,9.0,11.0,74,0.00,,,0.00,Wunderground v.1.15,2013-02-13 16:47:00,
2013-02-13 11:53:00,36.4,28.6,29.87,SW,219,10.0,10.0,73,0.00,,,0.00,Wunderground v.1.15,2013-02-13 16:53:00,
2013-02-13 11:58:00,36.4,28.9,29.87,SW,217,10.0,11.0,74,0.00,,,0.00,Wunderground v.1.15,2013-02-13 16:58:00,
2013-02-13 12:03:00,36.5,29.0,29.87,SW,215,9.0,11.0,74,0.00,,,0.00,Wunderground v.1.15,2013-02-13 17:03:00,
2013-02-13 12:07:00,36.7,29.2,29.87,SW,231,11.0,11.0,74,0.00,,,0.00,Wunderground v.1.15,2013-02-13 17:07:00,
2013-02-13 12:13:00,37.2,28.7,29.87,SW,230,9.0,11.0,71,0.00,,,0.00,Wunderground v.1.15,2013-02-13 17:13:00,
2013-02-13 12:18:00,37.5,28.6,29.88,SW,233,12.0,15.0,70,0.00,,,0.00,Wunderground v.1.15,2013-02-13 17:18:00,
2013-02-13 12:23:00,37.5,28.6,29.88,SW,225,12.0,14.0,70,0.00,,,0.00,Wunderground v.1.15,2013-02-13 17:23:00,
2013-02-13 12:28:00,37.5,28.6,29.88,WSW,237,14.0,16.0,70,0.00,,,0.00,Wunderground v.1.15,2013-02-13 17:28:00,
2013-02-13 12:33:00,37.9,28.6,29.88,SW,234,13.0,15.0,69,0.00,,,0.00,Wunderground v.1.15,2013-02-13 17:33:00,
2013-02-13 12:38:00,37.9,28.3,29.88,SW,221,12.0,15.0,68,0.00,,,0.00,Wunderground v.1.15,2013-02-13 17:38:00,
2013-02-13 12:43:00,38.1,28.1,29.87,SW,232,12.0,13.0,67,0.00,,,0.00,Wunderground v.1.15,2013-02-13 17:43:00,
2013-02-13 12:48:00,38.4,27.3,29.87,WSW,246,16.0,17.0,64,0.00,,,0.00,Wunderground v.1.15,2013-02-13 17:48:00,
2013-02-13 12:53:00,38.5,27.4,29.87,WSW,246,13.0,17.0,64,0.00,,,0.00,Wunderground v.1.15,2013-02-13 17:53:00,
2013-02-13 12:58:00,38.4,27.7,29.86,WSW,242,13.0,17.0,65,0.00,,,0.00,Wunderground v.1.15,2013-02-13 17:58:00,
2013-02-13 13:03:00,38.4,27.3,29.86,WSW,249,16.0,18.0,64,0.00,,,0.00,Wunderground v.1.15,2013-02-13 18:03:00,
2013-02-13 13:08:00,38.6,27.5,29.86,WSW,246,15.0,18.0,64,0.00,,,0.00,Wunderground v.1.15,2013-02-13 18:08:00,
2013-02-13 13:13:00,38.9,27.8,29.86,WSW,242,15.0,17.0,64,0.00,,,0.00,Wunderground v.1.15,2013-02-13 18:13:00,
2013-02-13 13:18:00,38.9,27.8,29.86,WSW,242,10.0,17.0,64,0.00,,,0.00,Wunderground v.1.15,2013-02-13 18:18:00,
2013-02-13 13:23:00,39.2,27.7,29.85,WSW,252,12.0,15.0,63,0.00,,,0.00,Wunderground v.1.15,2013-02-13 18:23:00,
2013-02-13 13:28:00,39.1,27.6,29.85,WSW,244,13.0,15.0,63,0.00,,,0.00,Wunderground v.1.15,2013-02-13 18:28:00,
2013-02-13 13:33:00,38.9,27.8,29.85,WSW,242,14.0,17.0,64,0.00,,,0.00,Wunderground v.1.15,2013-02-13 18:33:00,
2013-02-13 13:38:00,38.8,27.7,29.85,WSW,246,14.0,18.0,64,0.00,,,0.00,Wunderground v.1.15,2013-02-13 18:38:00,
2013-02-13 13:43:00,38.8,27.7,29.85,WSW,244,17.0,18.0,64,0.00,,,0.00,Wunderground v.1.15,2013-02-13 18:43:00,
2013-02-13 13:48:00,38.8,27.3,29.85,WSW,252,15.0,18.0,63,0.00,,,0.00,Wunderground v.1.15,2013-02-13 18:48:00,
2013-02-13 13:53:00,38.6,27.1,29.85,WSW,251,13.0,17.0,63,0.00,,,0.00,Wunderground v.1.15,2013-02-13 18:53:00,
2013-02-13 13:58:00,38.6,27.5,29.85,WSW,254,14.0,17.0,64,0.00,,,0.00,Wunderground v.1.15,2013-02-13 18:58:00,
2013-02-13 14:03:00,38.3,27.2,29.84,WSW,247,12.0,17.0,64,0.00,,,0.00,Wunderground v.1.15,2013-02-13 19:03:00,
2013-02-13 14:08:00,38.3,27.2,29.84,WSW,244,10.0,18.0,64,0.00,,,0.00,Wunderground v.1.15,2013-02-13 19:08:00,
2013-02-13 14:13:00,38.4,28.0,29.84,WSW,253,14.0,15.0,66,0.00,,,0.00,Wunderground v.1.15,2013-02-13 19:13:00,
2013-02-13 14:18:00,38.4,27.3,29.84,West,263,11.0,15.0,64,0.00,,,0.00,Wunderground v.1.15,2013-02-13 19:18:00,
2013-02-13 14:23:00,38.4,27.3,29.84,WSW,246,14.0,16.0,64,0.00,,,0.00,Wunderground v.1.15,2013-02-13 19:23:00,
2013-02-13 14:28:00,38.5,27.4,29.84,SW,227,13.0,18.0,64,0.00,,,0.00,Wunderground v.1.15,2013-02-13 19:28:00,
2013-02-13 14:33:00,38.5,27.7,29.84,SW,236,13.0,16.0,65,0.00,,,0.00,Wunderground v.1.15,2013-02-13 19:33:00,
2013-02-13 14:38:00,38.6,28.2,29.84,WSW,245,12.0,17.0,66,0.00,,,0.00,Wunderground v.1.15,2013-02-13 19:38:00,
2013-02-13 14:43:00,38.5,28.5,29.84,WSW,240,18.0,18.0,67,0.00,,,0.00,Wunderground v.1.15,2013-02-13 19:43:00,
2013-02-13 14:48:00,38.5,28.1,29.83,WSW,244,16.0,18.0,66,0.00,,,0.00,Wunderground v.1.15,2013-02-13 19:48:00,
2013-02-13 14:53:00,38.5,27.7,29.83,SW,231,13.0,16.0,65,0.00,,,0.00,Wunderground v.1.15,2013-02-13 19:53:00,
2013-02-13 14:58:00,38.4,27.7,29.82,WSW,242,13.0,16.0,65,0.00,,,0.00,Wunderground v.1.15,2013-02-13 19:58:00,
2013-02-13 15:03:00,38.4,28.4,29.82,WSW,244,9.0,13.0,67,0.00,,,0.00,Wunderground v.1.15,2013-02-13 20:03:00,
2013-02-13 15:08:00,38.5,28.5,29.82,SW,233,11.0,14.0,67,0.00,,,0.00,Wunderground v.1.15,2013-02-13 20:08:00,
2013-02-13 15:13:00,38.5,28.5,29.81,SW,235,12.0,14.0,67,0.00,,,0.00,Wunderground v.1.15,2013-02-13 20:13:00,
2013-02-13 15:18:00,38.6,28.9,29.81,SW,227,12.0,14.0,68,0.00,,,0.00,Wunderground v.1.15,2013-02-13 20:18:00,
2013-02-13 15:23:00,38.4,28.8,29.81,SW,229,12.0,15.0,68,0.00,,,0.00,Wunderground v.1.15,2013-02-13 20:23:00,
2013-02-13 15:28:00,38.3,28.7,29.81,SW,231,12.0,15.0,68,0.00,,,0.00,Wunderground v.1.15,2013-02-13 20:28:00,
2013-02-13 15:33:00,37.9,29.3,29.80,WSW,237,11.0,13.0,71,0.00,,,0.00,Wunderground v.1.15,2013-02-13 20:33:00,
2013-02-13 15:38:00,37.8,29.2,29.80,SW,229,8.0,13.0,71,0.00,,,0.00,Wunderground v.1.15,2013-02-13 20:38:00,
2013-02-13 15:43:00,37.8,29.2,29.80,SW,222,8.0,10.0,71,0.00,,,0.00,Wunderground v.1.15,2013-02-13 20:43:00,
2013-02-13 15:48:00,37.6,29.0,29.80,SW,229,11.0,12.0,71,0.00,,,0.00,Wunderground v.1.15,2013-02-13 20:48:00,
2013-02-13 15:53:00,37.8,29.6,29.80,SW,236,11.0,13.0,72,0.00,,,0.00,Wunderground v.1.15,2013-02-13 20:53:00,
2013-02-13 15:58:00,37.7,29.8,29.80,SW,229,10.0,13.0,73,0.00,,,0.00,Wunderground v.1.15,2013-02-13 20:58:00,
2013-02-13 16:03:00,37.9,29.7,29.80,WSW,243,8.0,10.0,72,0.00,,,0.00,Wunderground v.1.15,2013-02-13 21:03:00,
2013-02-13 16:08:00,38.1,29.2,29.79,WSW,248,7.0,10.0,70,0.00,,,0.00,Wunderground v.1.15,2013-02-13 21:08:00,
2013-02-13 16:13:00,38.2,29.6,29.80,SW,234,9.0,9.0,71,0.00,,,0.00,Wunderground v.1.15,2013-02-13 21:13:00,
2013-02-13 16:18:00,37.2,29.7,29.80,SW,221,10.0,11.0,74,0.00,,,0.00,Wunderground v.1.15,2013-02-13 21:18:00,
2013-02-13 16:23:00,37.3,29.8,29.80,WSW,247,9.0,12.0,74,0.00,,,0.00,Wunderground v.1.15,2013-02-13 21:23:00,
2013-02-13 16:28:00,37.9,29.0,29.80,SW,227,8.0,12.0,70,0.00,,,0.00,Wunderground v.1.15,2013-02-13 21:28:00,
2013-02-13 16:33:00,37.5,30.0,29.80,SW,229,5.0,9.0,74,0.00,,,0.00,Wunderground v.1.15,2013-02-13 21:33:00,
2013-02-13 16:38:00,36.9,30.0,29.79,SW,231,9.0,9.0,76,0.00,,,0.00,Wunderground v.1.15,2013-02-13 21:38:00,
2013-02-13 16:43:00,36.4,29.9,29.80,SW,235,9.0,10.0,77,0.00,,,0.00,Wunderground v.1.15,2013-02-13 21:43:00,
2013-02-13 16:48:00,36.3,29.8,29.80,WSW,248,9.0,10.0,77,0.00,,,0.00,Wunderground v.1.15,2013-02-13 21:48:00,
2013-02-13 16:53:00,36.7,28.5,29.80,West,261,10.0,11.0,72,0.00,,,0.00,Wunderground v.1.15,2013-02-13 21:53:00,
2013-02-13 16:58:00,36.7,28.5,29.80,WSW,252,10.0,11.0,72,0.00,,,0.00,Wunderground v.1.15,2013-02-13 21:58:00,
2013-02-13 17:03:00,36.7,28.2,29.81,WSW,254,10.0,11.0,71,0.00,,,0.00,Wunderground v.1.15,2013-02-13 22:03:00,
2013-02-13 17:08:00,36.6,28.1,29.81,WSW,257,8.0,12.0,71,0.00,,,0.00,Wunderground v.1.15,2013-02-13 22:08:00,
2013-02-13 17:13:00,36.3,28.1,29.80,West,265,9.0,9.0,72,0.00,,,0.00,Wunderground v.1.15,2013-02-13 22:13:00,
2013-02-13 17:18:00,36.3,28.1,29.80,West,259,9.0,11.0,72,0.00,,,0.00,Wunderground v.1.15,2013-02-13 22:18:00,
2013-02-13 17:23:00,36.2,28.0,29.80,WSW,254,6.0,10.0,72,0.00,,,0.00,Wunderground v.1.15,2013-02-13 22:23:00,
2013-02-13 17:28:00,36.1,28.6,29.80,WSW,257,7.0,10.0,74,0.00,,,0.00,Wunderground v.1.15,2013-02-13 22:28:00,
2013-02-13 17:33:00,35.9,28.4,29.81,WSW,257,7.0,8.0,74,0.00,,,0.00,Wunderground v.1.15,2013-02-13 22:33:00,
2013-02-13 17:38:00,35.9,28.4,29.80,WSW,248,5.0,9.0,74,0.00,,,0.00,Wunderground v.1.15,2013-02-13 22:38:00,
2013-02-13 17:43:00,35.8,28.3,29.80,WSW,246,4.0,7.0,74,0.00,,,0.00,Wunderground v.1.15,2013-02-13 22:43:00,
2013-02-13 17:48:00,35.7,28.6,29.80,WSW,246,3.0,7.0,75,0.00,,,0.00,Wunderground v.1.15,2013-02-13 22:48:00,
2013-02-13 17:53:00,35.7,28.6,29.80,SW,233,4.0,4.0,75,0.00,,,0.00,Wunderground v.1.15,2013-02-13 22:53:00,
2013-02-13 17:58:00,35.7,28.9,29.80,SW,232,4.0,5.0,76,0.00,,,0.00,Wunderground v.1.15,2013-02-13 22:58:00,
2013-02-13 18:03:00,35.6,28.8,29.79,SW,232,1.0,4.0,76,0.00,,,0.00,Wunderground v.1.15,2013-02-13 23:03:00,
2013-02-13 18:08:00,35.5,29.0,29.79,SW,221,1.0,4.0,77,0.00,,,0.00,Wunderground v.1.15,2013-02-13 23:08:00,
2013-02-13 18:13:00,35.3,29.7,29.78,SSE,156,3.0,4.0,80,0.00,,,0.00,Wunderground v.1.15,2013-02-13 23:13:00,
2013-02-13 18:18:00,35.0,30.1,29.78,SSW,211,7.0,7.0,82,0.00,,,0.00,Wunderground v.1.15,2013-02-13 23:18:00,
2013-02-13 18:23:00,34.9,30.6,29.78,SW,228,6.0,8.0,84,0.00,,,0.00,Wunderground v.1.15,2013-02-13 23:23:00,
2013-02-13 18:28:00,34.8,30.8,29.78,SW,218,5.0,8.0,85,0.00,,,0.00,Wunderground v.1.15,2013-02-13 23:28:00,
2013-02-13 18:33:00,34.7,30.9,29.78,SW,215,4.0,6.0,86,0.00,,,0.00,Wunderground v.1.15,2013-02-13 23:33:00,
2013-02-13 18:38:00,34.6,30.8,29.79,SW,215,2.0,6.0,86,0.00,,,0.00,Wunderground v.1.15,2013-02-13 23:38:00,
2013-02-13 18:43:00,34.5,31.0,29.79,SW,215,2.0,3.0,87,0.00,,,0.00,Wunderground v.1.15,2013-02-13 23:43:00,
2013-02-13 18:48:00,34.5,31.0,29.79,SW,215,2.0,3.0,87,0.00,,,0.00,Wunderground v.1.15,2013-02-13 23:48:00,
2013-02-13 18:53:00,34.4,30.9,29.78,SW,215,0.0,2.0,87,0.00,,,0.00,Wunderground v.1.15,2013-02-13 23:53:00,
2013-02-13 18:58:00,34.3,30.8,29.78,South,189,2.0,2.0,87,0.00,,,0.00,Wunderground v.1.15,2013-02-13 23:58:00,
2013-02-13 19:03:00,34.1,30.6,29.78,South,189,1.0,1.0,87,0.00,,,0.00,Wunderground v.1.15,2013-02-14 00:03:00,
2013-02-13 19:08:00,34.1,30.6,29.77,South,189,0.0,1.0,87,0.00,,,0.00,Wunderground v.1.15,2013-02-14 00:08:00,
2013-02-13 19:13:00,34.1,30.4,29.77,South,189,1.0,1.0,86,0.00,,,0.00,Wunderground v.1.15,2013-02-14 00:13:00,
2013-02-13 19:18:00,34.1,30.6,29.78,South,189,0.0,1.0,87,0.00,,,0.00,Wunderground v.1.15,2013-02-14 00:18:00,
2013-02-13 19:23:00,33.9,30.4,29.78,South,189,2.0,2.0,87,0.00,,,0.00,Wunderground v.1.15,2013-02-14 00:23:00,
2013-02-13 19:28:00,33.4,29.9,29.78,SSW,196,2.0,3.0,87,0.00,,,0.00,Wunderground v.1.15,2013-02-14 00:28:00,
2013-02-13 19:33:00,33.1,29.9,29.77,SSW,196,2.0,2.0,88,0.00,,,0.00,Wunderground v.1.15,2013-02-14 00:33:00,
2013-02-13 19:38:00,32.9,29.7,29.77,South,189,1.0,2.0,88,0.00,,,0.00,Wunderground v.1.15,2013-02-14 00:38:00,
2013-02-13 19:43:00,32.7,29.5,29.77,South,185,2.0,2.0,88,0.00,,,0.00,Wunderground v.1.15,2013-02-14 00:43:00,
2013-02-13 19:48:00,33.0,29.8,29.78,South,179,2.0,3.0,88,0.00,,,0.00,Wunderground v.1.15,2013-02-14 00:48:00,
2013-02-13 19:53:00,33.1,29.7,29.78,SSW,192,2.0,2.0,87,0.00,,,0.00,Wunderground v.1.15,2013-02-14 00:53:00,
2013-02-13 19:58:00,33.1,29.9,29.78,SSW,194,1.0,3.0,88,0.00,,,0.00,Wunderground v.1.15,2013-02-14 00:58:00,
2013-02-13 20:03:00,33.2,30.3,29.78,SSW,194,0.0,2.0,89,0.00,,,0.00,Wunderground v.1.15,2013-02-14 01:03:00,
2013-02-13 20:08:00,33.3,30.4,29.78,SSW,194,0.0,2.0,89,0.00,,,0.00,Wunderground v.1.15,2013-02-14 01:08:00,
2013-02-13 20:13:00,33.4,30.5,29.78,SSW,194,0.0,0.0,89,0.00,,,0.00,Wunderground v.1.15,2013-02-14 01:13:00,
2013-02-13 20:18:00,33.5,30.3,29.78,SSW,194,0.0,1.0,88,0.00,,,0.00,Wunderground v.1.15,2013-02-14 01:18:00,
2013-02-13 20:23:00,33.7,30.8,29.77,SSW,192,1.0,2.0,89,0.00,,,0.00,Wunderground v.1.15,2013-02-14 01:23:00,
2013-02-13 20:28:00,33.6,30.4,29.77,ENE,70,1.0,3.0,88,0.00,,,0.00,Wunderground v.1.15,2013-02-14 01:28:00,
2013-02-13 20:33:00,33.5,30.3,29.76,ENE,70,1.0,1.0,88,0.00,,,0.00,Wunderground v.1.15,2013-02-14 01:33:00,
2013-02-13 20:38:00,33.6,30.1,29.76,ENE,70,2.0,2.0,87,0.00,,,0.00,Wunderground v.1.15,2013-02-14 01:38:00,
2013-02-13 20:43:00,34.3,31.1,29.75,ENE,58,2.0,3.0,88,0.00,,,0.00,Wunderground v.1.15,2013-02-14 01:43:00,
2013-02-13 20:48:00,34.8,31.3,29.76,ENE,58,2.0,3.0,87,0.00,,,0.00,Wunderground v.1.15,2013-02-14 01:48:00,
2013-02-13 20:53:00,35.1,31.6,29.76,NNE,19,0.0,3.0,87,0.00,,,0.00,Wunderground v.1.15,2013-02-14 01:53:00,
2013-02-13 20:58:00,35.5,31.7,29.76,NNE,17,2.0,3.0,86,0.00,,,0.00,Wunderground v.1.15,2013-02-14 01:58:00,
2013-02-13 21:03:00,35.8,32.0,29.77,NNE,17,0.0,2.0,86,0.00,,,0.00,Wunderground v.1.15,2013-02-14 02:03:00,
2013-02-13 21:08:00,35.9,31.8,29.76,NNE,17,2.0,2.0,85,0.00,,,0.00,Wunderground v.1.15,2013-02-14 02:08:00,
2013-02-13 21:13:00,35.8,31.4,29.77,NNE,17,2.0,3.0,84,0.00,,,0.00,Wunderground v.1.15,2013-02-14 02:13:00,
2013-02-13 21:18:00,35.6,31.5,29.76,NNE,17,2.0,3.0,85,0.00,,,0.00,Wunderground v.1.15,2013-02-14 02:18:00,
2013-02-13 21:23:00,35.7,31.6,29.77,NNE,17,0.0,2.0,85,0.00,,,0.00,Wunderground v.1.15,2013-02-14 02:23:00,
2013-02-13 21:28:00,35.8,31.4,29.77,NNE,17,0.0,2.0,84,0.00,,,0.00,Wunderground v.1.15,2013-02-14 02:28:00,
2013-02-13 21:33:00,35.8,31.4,29.76,NNE,17,1.0,3.0,84,0.00,,,0.00,Wunderground v.1.15,2013-02-14 02:33:00,
2013-02-13 21:38:00,35.8,31.4,29.76,NNE,17,1.0,3.0,84,0.00,,,0.00,Wunderground v.1.15,2013-02-14 02:38:00,
2013-02-13 21:43:00,35.8,31.4,29.76,NNE,26,3.0,4.0,84,0.00,,,0.00,Wunderground v.1.15,2013-02-14 02:43:00,
2013-02-13 21:48:00,35.6,31.2,29.76,NNE,26,1.0,4.0,84,0.00,,,0.00,Wunderground v.1.15,2013-02-14 02:48:00,
2013-02-13 21:53:00,35.6,31.2,29.76,NNE,26,2.0,3.0,84,0.00,,,0.00,Wunderground v.1.15,2013-02-14 02:53:00,
2013-02-13 21:58:00,35.0,30.1,29.76,NNE,26,0.0,3.0,82,0.00,,,0.00,Wunderground v.1.15,2013-02-14 02:58:00,
2013-02-13 22:03:00,34.0,29.4,29.76,NNE,26,0.0,1.0,83,0.00,,,0.00,Wunderground v.1.15,2013-02-14 03:03:00,
2013-02-13 22:08:00,33.5,29.2,29.76,NNE,26,0.0,1.0,84,0.00,,,0.00,Wunderground v.1.15,2013-02-14 03:08:00,
2013-02-13 22:13:00,33.1,29.1,29.76,NNE,26,0.0,0.0,85,0.00,,,0.00,Wunderground v.1.15,2013-02-14 03:13:00,
2013-02-13 22:18:00,32.9,29.2,29.75,NNE,26,0.0,0.0,86,0.00,,,0.00,Wunderground v.1.15,2013-02-14 03:18:00,
2013-02-13 22:23:00,32.8,29.1,29.75,NNE,26,0.0,0.0,86,0.00,,,0.00,Wunderground v.1.15,2013-02-14 03:23:00,
2013-02-13 22:28:00,32.7,29.3,29.75,NNE,26,0.0,2.0,87,0.00,,,0.00,Wunderground v.1.15,2013-02-14 03:28:00,
2013-02-13 22:33:00,32.9,29.7,29.74,NNE,32,2.0,2.0,88,0.00,,,0.00,Wunderground v.1.15,2013-02-14 03:33:00,
2013-02-13 22:38:00,33.1,30.2,29.73,NNE,33,2.0,3.0,89,0.00,,,0.00,Wunderground v.1.15,2013-02-14 03:38:00,
2013-02-13 22:43:00,33.4,30.5,29.73,NNE,33,0.0,2.0,89,0.00,,,0.00,Wunderground v.1.15,2013-02-14 03:43:00,
2013-02-13 22:48:00,34.0,31.1,29.73,NNE,33,2.0,3.0,89,0.00,,,0.00,Wunderground v.1.15,2013-02-14 03:48:00,
2013-02-13 22:54:00,34.5,31.6,29.71,NNE,33,1.0,5.0,89,0.00,,,0.00,Wunderground v.1.15,2013-02-14 03:54:00,
2013-02-13 22:59:00,34.8,31.6,29.70,ENE,70,2.0,5.0,88,0.00,,,0.00,Wunderground v.1.15,2013-02-14 03:59:00,
2013-02-13 23:04:00,34.0,30.0,29.70,ENE,63,3.0,4.0,85,0.00,,,0.00,Wunderground v.1.15,2013-02-14 04:04:00,
2013-02-13 23:08:00,33.7,30.0,29.69,ENE,65,3.0,4.0,86,0.00,,,0.00,Wunderground v.1.15,2013-02-14 04:08:00,
2013-02-13 23:13:00,33.8,30.1,29.71,ENE,63,1.0,2.0,86,0.00,,,0.00,Wunderground v.1.15,2013-02-14 04:13:00,
2013-02-13 23:19:00,33.5,29.5,29.72,ENE,63,0.0,2.0,85,0.00,,,0.00,Wunderground v.1.15,2013-02-14 04:19:00,
2013-02-13 23:24:00,33.2,29.5,29.73,ENE,62,0.0,2.0,86,0.00,,,0.00,Wunderground v.1.15,2013-02-14 04:24:00,
2013-02-13 23:29:00,34.1,30.9,29.72,ENE,62,0.0,2.0,88,0.00,,,0.00,Wunderground v.1.15,2013-02-14 04:29:00,
2013-02-13 23:34:00,34.8,31.3,29.73,ENE,62,0.0,1.0,87,0.00,,,0.00,Wunderground v.1.15,2013-02-14 04:34:00,
2013-02-13 23:39:00,35.8,32.3,29.73,ENE,62,1.0,2.0,87,0.00,,,0.00,Wunderground v.1.15,2013-02-14 04:39:00,
2013-02-13 23:44:00,36.1,32.0,29.74,ENE,62,1.0,2.0,85,0.00,,,0.00,Wunderground v.1.15,2013-02-14 04:44:00,
2013-02-13 23:49:00,36.5,32.4,29.75,ENE,61,0.0,3.0,85,0.00,,,0.00,Wunderground v.1.15,2013-02-14 04:49:00,
2013-02-13 23:54:00,36.5,32.1,29.75,ENE,61,1.0,2.0,84,0.00,,,0.00,Wunderground v.1.15,2013-02-14 04:54:00,
2013-02-13 23:59:00,36.7,32.6,29.75,ENE,61,2.0,3.0,85,0.00,,,0.00,Wunderground v.1.15,2013-02-14 04:59:00,